Location: El Chorro
(10.0985°N, 67.3542°W)
Time: 18:09:44
(UTC+00:00)

Yuri Rocket - Pass Details

Date: 15 November 2025
Orbit: 567 x 1898 km, 28.2° (Epoch: 06 December)

Event Time Altitude Azimuth Distance (km) Brightness Sun altitude
Rises 23:42:53 0° 228° (SW) 3,193 7.8 -24.1°
Reaches altitude 10° 23:45:40 10° 221° (SW) 2,113 6.5 -24.8°
Enters shadow 23:49:22 36° 176° (S) 970 4.1 -25.6°
